Time,TemperatureF,DewpointF,PressureIn,WindDirection,WindDirectionDegrees,WindSpeedMPH,WindSpeedGustMPH,Humidity,HourlyPrecipIn,Conditions,Clouds,dailyrainin,SoftwareType,DateUTC
2013-12-14 00:56:00,26.8,22.6,29.21,NE,45,0.0,0.0,84,0.00,,,0.00,WUHU21623XXSP,2013-12-14 06:56:00,
2013-12-14 01:56:00,27.1,22.9,29.19,NE,45,0.0,0.0,84,0.00,,,0.00,WUHU21623XXSP,2013-12-14 07:56:00,
2013-12-14 02:56:00,27.1,22.9,29.17,NE,45,0.0,0.0,84,0.00,,,0.00,WUHU21623XXSP,2013-12-14 08:56:00,
2013-12-14 03:56:00,27.1,23.2,29.18,NE,45,0.0,0.0,85,0.00,,,0.00,WUHU21623XXSP,2013-12-14 09:56:00,
2013-12-14 04:56:00,27.3,23.4,29.17,NNE,23,0.0,0.0,85,0.00,,,0.00,WUHU21623XXSP,2013-12-14 10:56:00,
2013-12-14 05:56:00,27.5,23.6,29.18,NE,45,0.0,0.0,85,0.00,,,0.00,WUHU21623XXSP,2013-12-14 11:56:00,
2013-12-14 07:00:00,26.6,22.4,29.19,NE,45,0.0,0.0,84,0.00,,,0.00,WUHU21623XXSP,2013-12-14 13:00:00,
2013-12-14 07:05:00,26.4,22.2,29.20,NE,45,0.0,0.0,84,0.00,,,0.00,WUHU21623XXSP,2013-12-14 13:05:00,
2013-12-14 07:10:00,26.4,22.2,29.20,NE,45,0.0,0.0,84,0.00,,,0.00,WUHU21623XXSP,2013-12-14 13:10:00,
2013-12-14 07:15:00,26.4,22.2,29.20,NNE,22,0.0,0.0,84,0.00,,,0.00,WUHU21623XXSP,2013-12-14 13:15:00,
2013-12-14 07:20:00,26.4,22.2,29.20,NE,45,0.0,0.0,84,0.00,,,0.00,WUHU21623XXSP,2013-12-14 13:20:00,
2013-12-14 07:25:00,26.2,22.0,29.20,NE,45,0.0,0.0,84,0.00,,,0.00,WUHU21623XXSP,2013-12-14 13:25:00,
2013-12-14 07:30:00,26.2,22.0,29.20,NNE,22,0.0,0.0,84,0.00,,,0.00,WUHU21623XXSP,2013-12-14 13:30:00,
2013-12-14 07:35:00,26.2,22.0,29.20,NE,45,0.0,0.0,84,0.00,,,0.00,WUHU21623XXSP,2013-12-14 13:35:00,
2013-12-14 07:40:00,26.2,22.0,29.20,NE,45,0.0,0.0,84,0.00,,,0.00,WUHU21623XXSP,2013-12-14 13:40:00,
2013-12-14 07:45:00,26.4,22.2,29.20,NNE,22,0.0,0.0,84,0.00,,,0.00,WUHU21623XXSP,2013-12-14 13:45:00,
2013-12-14 07:50:00,26.2,22.0,29.21,NNE,22,0.0,0.0,84,0.00,,,0.00,WUHU21623XXSP,2013-12-14 13:50:00,
2013-12-14 07:55:00,26.2,22.0,29.20,NE,45,0.0,0.0,84,0.00,,,0.00,WUHU21623XXSP,2013-12-14 13:55:00,
2013-12-14 08:00:00,26.2,22.0,29.20,NE,45,0.0,0.0,84,0.00,,,0.00,WUHU21623XXSP,2013-12-14 14:00:00,
2013-12-14 08:05:00,26.4,22.2,29.20,NE,45,0.0,0.0,84,0.00,,,0.00,WUHU21623XXSP,2013-12-14 14:05:00,
2013-12-14 08:10:00,26.4,22.2,29.21,North,0,0.0,0.0,84,0.00,,,0.00,WUHU21623XXSP,2013-12-14 14:10:00,
2013-12-14 08:15:00,26.4,22.5,29.21,NNE,22,0.0,0.0,85,0.00,,,0.00,WUHU21623XXSP,2013-12-14 14:15:00,
2013-12-14 08:20:00,26.4,22.2,29.21,NNE,22,0.0,0.0,84,0.00,,,0.00,WUHU21623XXSP,2013-12-14 14:20:00,
2013-12-14 08:25:00,26.4,22.5,29.21,NNE,22,0.0,0.0,85,0.00,,,0.00,WUHU21623XXSP,2013-12-14 14:25:00,
2013-12-14 08:30:00,26.4,22.2,29.21,NE,45,0.0,0.0,84,0.00,,,0.00,WUHU21623XXSP,2013-12-14 14:30:00,
2013-12-14 08:35:00,26.4,22.2,29.21,NNE,22,0.0,0.0,84,0.00,,,0.00,WUHU21623XXSP,2013-12-14 14:35:00,
2013-12-14 08:40:00,26.4,22.2,29.21,NE,45,0.0,0.0,84,0.00,,,0.00,WUHU21623XXSP,2013-12-14 14:40:00,
2013-12-14 08:45:00,26.4,22.2,29.21,NE,45,0.0,0.0,84,0.00,,,0.00,WUHU21623XXSP,2013-12-14 14:45:00,
2013-12-14 08:50:00,26.4,22.2,29.21,NE,45,0.0,0.0,84,0.00,,,0.00,WUHU21623XXSP,2013-12-14 14:50:00,
2013-12-14 08:55:00,26.4,22.2,29.21,NE,45,0.0,0.0,84,0.00,,,0.00,WUHU21623XXSP,2013-12-14 14:55:00,
2013-12-14 09:00:00,26.4,22.2,29.21,NE,45,0.0,0.0,84,0.00,,,0.00,WUHU21623XXSP,2013-12-14 15:00:00,
2013-12-14 09:05:00,26.6,22.4,29.21,NE,45,0.0,0.0,84,0.00,,,0.00,WUHU21623XXSP,2013-12-14 15:05:00,
2013-12-14 09:10:00,26.8,22.5,29.21,NNE,22,0.0,0.0,84,0.00,,,0.00,WUHU21623XXSP,2013-12-14 15:10:00,
2013-12-14 09:15:00,27.0,22.7,29.22,NE,45,0.0,0.0,84,0.00,,,0.00,WUHU21623XXSP,2013-12-14 15:15:00,
2013-12-14 09:20:00,27.0,22.7,29.22,NE,45,0.0,0.0,84,0.00,,,0.00,WUHU21623XXSP,2013-12-14 15:20:00,
2013-12-14 09:25:00,27.1,22.9,29.22,NNE,22,0.0,0.0,84,0.00,,,0.00,WUHU21623XXSP,2013-12-14 15:25:00,
2013-12-14 09:30:00,27.1,22.9,29.22,NNE,22,0.0,0.0,84,0.00,,,0.00,WUHU21623XXSP,2013-12-14 15:30:00,
2013-12-14 09:35:00,27.1,22.9,29.22,NNE,22,0.0,0.0,84,0.00,,,0.00,WUHU21623XXSP,2013-12-14 15:35:00,
2013-12-14 09:40:00,27.3,23.1,29.23,NE,45,0.0,0.0,84,0.00,,,0.00,WUHU21623XXSP,2013-12-14 15:40:00,
2013-12-14 09:45:00,27.5,23.3,29.23,NE,45,0.0,0.0,84,0.00,,,0.00,WUHU21623XXSP,2013-12-14 15:45:00,
2013-12-14 09:50:00,27.7,23.1,29.23,NE,45,0.0,0.0,83,0.00,,,0.00,WUHU21623XXSP,2013-12-14 15:50:00,
2013-12-14 09:55:00,27.7,23.1,29.23,NE,45,0.0,0.0,83,0.00,,,0.00,WUHU21623XXSP,2013-12-14 15:55:00,
2013-12-14 10:00:00,27.7,23.1,29.23,NNE,22,0.0,0.0,83,0.00,,,0.00,WUHU21623XXSP,2013-12-14 16:00:00,
2013-12-14 10:05:00,27.5,23.0,29.23,NNE,22,0.0,0.0,83,0.00,,,0.00,WUHU21623XXSP,2013-12-14 16:05:00,
2013-12-14 10:10:00,27.5,23.0,29.23,NNE,22,0.0,0.0,83,0.00,,,0.00,WUHU21623XXSP,2013-12-14 16:10:00,
2013-12-14 10:15:00,27.3,22.8,29.23,NNE,22,0.0,0.0,83,0.00,,,0.00,WUHU21623XXSP,2013-12-14 16:15:00,
2013-12-14 10:20:00,27.5,23.0,29.23,NNE,22,0.0,0.0,83,0.00,,,0.00,WUHU21623XXSP,2013-12-14 16:20:00,
2013-12-14 10:25:00,27.7,22.9,29.23,NE,45,0.0,0.0,82,0.00,,,0.00,WUHU21623XXSP,2013-12-14 16:25:00,
2013-12-14 10:30:00,27.7,22.9,29.23,NNE,22,0.0,0.0,82,0.00,,,0.00,WUHU21623XXSP,2013-12-14 16:30:00,
2013-12-14 10:35:00,27.7,22.9,29.22,NE,45,0.0,0.0,82,0.00,,,0.00,WUHU21623XXSP,2013-12-14 16:35:00,
2013-12-14 10:40:00,27.5,22.7,29.23,NE,45,0.0,0.0,82,0.00,,,0.00,WUHU21623XXSP,2013-12-14 16:40:00,
2013-12-14 10:45:00,27.5,22.7,29.23,NE,45,0.0,0.0,82,0.00,,,0.00,WUHU21623XXSP,2013-12-14 16:45:00,
2013-12-14 10:50:00,27.5,22.7,29.23,NE,45,0.0,0.0,82,0.00,,,0.00,WUHU21623XXSP,2013-12-14 16:50:00,
2013-12-14 10:55:00,27.3,22.5,29.23,NNE,22,0.0,0.0,82,0.00,,,0.00,WUHU21623XXSP,2013-12-14 16:55:00,
2013-12-14 11:00:00,27.5,22.7,29.22,NNE,22,0.0,0.0,82,0.00,,,0.00,WUHU21623XXSP,2013-12-14 17:00:00,
2013-12-14 11:05:00,27.7,22.9,29.23,NE,45,0.0,0.0,82,0.00,,,0.00,WUHU21623XXSP,2013-12-14 17:05:00,
2013-12-14 11:10:00,27.7,22.9,29.22,NE,45,0.0,0.0,82,0.00,,,0.00,WUHU21623XXSP,2013-12-14 17:10:00,
2013-12-14 11:15:00,28.0,23.2,29.21,NE,45,0.0,0.0,82,0.00,,,0.00,WUHU21623XXSP,2013-12-14 17:15:00,
2013-12-14 11:20:00,28.2,23.1,29.21,NE,45,0.0,0.0,81,0.00,,,0.00,WUHU21623XXSP,2013-12-14 17:20:00,
2013-12-14 11:25:00,28.6,23.5,29.21,NNE,22,0.0,0.0,81,0.00,,,0.00,WUHU21623XXSP,2013-12-14 17:25:00,
2013-12-14 11:30:00,28.8,23.6,29.21,North,0,0.0,0.0,81,0.00,,,0.00,WUHU21623XXSP,2013-12-14 17:30:00,
2013-12-14 11:35:00,28.9,23.6,29.21,North,0,0.0,0.0,80,0.00,,,0.00,WUHU21623XXSP,2013-12-14 17:35:00,
2013-12-14 11:40:00,29.1,23.7,29.21,NNE,22,5.4,8.7,80,0.00,,,0.00,WUHU21623XXSP,2013-12-14 17:40:00,
2013-12-14 11:45:00,29.1,23.7,29.21,NNE,22,4.3,8.7,80,0.00,,,0.00,WUHU21623XXSP,2013-12-14 17:45:00,
2013-12-14 11:50:00,29.3,23.9,29.21,NE,45,3.1,6.0,80,0.00,,,0.00,WUHU21623XXSP,2013-12-14 17:50:00,
2013-12-14 11:55:00,29.5,23.8,29.21,NNE,22,7.8,7.8,79,0.00,,,0.00,WUHU21623XXSP,2013-12-14 17:55:00,
2013-12-14 12:00:00,29.7,23.9,29.21,NNE,22,5.6,7.8,79,0.00,,,0.00,WUHU21623XXSP,2013-12-14 18:00:00,
2013-12-14 12:05:00,29.7,23.9,29.21,NE,45,3.8,5.6,79,0.00,,,0.00,WUHU21623XXSP,2013-12-14 18:05:00,
2013-12-14 12:10:00,29.7,23.6,29.22,NE,45,4.7,5.4,78,0.00,,,0.00,WUHU21623XXSP,2013-12-14 18:10:00,
2013-12-14 12:15:00,29.5,23.4,29.21,NNE,22,6.7,7.6,78,0.00,,,0.00,WUHU21623XXSP,2013-12-14 18:15:00,
2013-12-14 12:20:00,29.5,23.4,29.21,NE,45,3.4,7.6,78,0.00,,,0.00,WUHU21623XXSP,2013-12-14 18:20:00,
2013-12-14 12:25:00,29.5,23.4,29.21,SSE,157,0.0,4.0,78,0.00,,,0.00,WUHU21623XXSP,2013-12-14 18:25:00,
2013-12-14 12:30:00,29.7,23.6,29.21,NNW,337,4.5,6.3,78,0.00,,,0.00,WUHU21623XXSP,2013-12-14 18:30:00,
2013-12-14 12:35:00,29.5,23.6,29.21,NE,45,7.2,7.2,77,0.00,,,0.00,WUHU21623XXSP,2013-12-14 18:35:00,
2013-12-14 12:40:00,29.5,23.1,29.21,North,0,0.0,8.1,77,0.00,,,0.00,WUHU21623XXSP,2013-12-14 18:40:00,
2013-12-14 12:45:00,29.3,22.9,29.21,NE,45,2.9,8.1,77,0.00,,,0.00,WUHU21623XXSP,2013-12-14 18:45:00,
2013-12-14 12:50:00,29.3,22.9,29.21,NNW,337,1.8,4.0,77,0.00,,,0.00,WUHU21623XXSP,2013-12-14 18:50:00,
2013-12-14 12:55:00,29.5,23.1,29.21,NE,45,4.9,4.9,77,0.00,,,0.00,WUHU21623XXSP,2013-12-14 18:55:00,
2013-12-14 13:00:00,29.7,23.1,29.21,NE,45,6.0,6.0,77,0.00,,,0.00,WUHU21623XXSP,2013-12-14 19:00:00,
2013-12-14 13:05:00,29.7,23.3,29.20,NW,315,6.9,6.9,77,0.00,,,0.00,WUHU21623XXSP,2013-12-14 19:05:00,
2013-12-14 13:10:00,29.3,22.6,29.20,NE,45,4.7,11.4,76,0.00,,,0.00,WUHU21623XXSP,2013-12-14 19:10:00,
2013-12-14 13:15:00,29.3,22.6,29.20,NNE,22,11.0,11.4,76,0.00,,,0.00,WUHU21623XXSP,2013-12-14 19:15:00,
2013-12-14 13:20:00,29.5,22.8,29.20,NNE,22,6.9,11.0,76,0.00,,,0.00,WUHU21623XXSP,2013-12-14 19:20:00,
2013-12-14 13:25:00,29.5,22.8,29.20,NNE,22,6.5,8.9,76,0.00,,,0.00,WUHU21623XXSP,2013-12-14 19:25:00,
2013-12-14 13:30:00,29.5,22.8,29.20,NNE,22,7.4,8.9,76,0.00,,,0.00,WUHU21623XXSP,2013-12-14 19:30:00,
2013-12-14 13:35:00,29.5,23.0,29.21,NNE,22,7.4,7.4,76,0.00,,,0.00,WUHU21623XXSP,2013-12-14 19:35:00,
2013-12-14 13:41:00,29.5,22.8,29.21,NNE,22,0.0,7.4,76,0.00,,,0.00,WUHU21623XXSP,2013-12-14 19:41:00,
2013-12-14 13:46:00,29.3,22.6,29.21,North,0,1.1,2.2,76,0.00,,,0.00,WUHU21623XXSP,2013-12-14 19:46:00,
2013-12-14 13:51:00,29.1,22.5,29.21,North,0,7.2,7.2,76,0.00,,,0.00,WUHU21623XXSP,2013-12-14 19:51:00,
2013-12-14 13:56:00,28.9,22.3,29.21,NNW,337,2.7,7.2,76,0.00,,,0.00,WUHU21623XXSP,2013-12-14 19:56:00,
2013-12-14 14:01:00,28.8,22.3,29.21,NNW,337,2.7,7.2,76,0.00,,,0.00,WUHU21623XXSP,2013-12-14 20:01:00,
2013-12-14 14:05:00,28.9,22.3,29.21,NNE,22,6.0,6.0,76,0.00,,,0.00,WUHU21623XXSP,2013-12-14 20:05:00,
2013-12-14 14:10:00,28.8,22.1,29.22,North,0,1.6,6.0,76,0.00,,,0.00,WUHU21623XXSP,2013-12-14 20:10:00,
2013-12-14 14:15:00,28.8,22.1,29.22,NNW,337,5.1,5.1,76,0.00,,,0.00,WUHU21623XXSP,2013-12-14 20:15:00,
2013-12-14 14:20:00,28.8,22.1,29.22,NNE,22,1.8,5.8,76,0.00,,,0.00,WUHU21623XXSP,2013-12-14 20:20:00,
2013-12-14 14:25:00,28.8,22.1,29.22,North,0,8.3,8.3,76,0.00,,,0.00,WUHU21623XXSP,2013-12-14 20:25:00,
2013-12-14 14:30:00,28.6,21.9,29.22,NNE,22,0.0,8.3,76,0.00,,,0.00,WUHU21623XXSP,2013-12-14 20:30:00,
2013-12-14 14:35:00,28.2,21.6,29.22,NW,315,4.7,4.7,76,0.00,,,0.00,WUHU21623XXSP,2013-12-14 20:35:00,
2013-12-14 14:40:00,28.2,21.6,29.22,NE,45,11.2,11.2,76,0.00,,,0.00,WUHU21623XXSP,2013-12-14 20:40:00,
2013-12-14 14:45:00,28.0,21.4,29.22,NNW,337,11.0,11.2,76,0.00,,,0.00,WUHU21623XXSP,2013-12-14 20:45:00,
2013-12-14 14:50:00,27.7,21.1,29.23,NE,45,5.4,11.0,76,0.00,,,0.00,WUHU21623XXSP,2013-12-14 20:50:00,
2013-12-14 14:55:00,27.7,21.1,29.23,NE,45,5.4,11.0,76,0.00,,,0.00,WUHU21623XXSP,2013-12-14 20:55:00,
2013-12-14 15:00:00,27.7,21.1,29.23,NE,45,0.0,5.4,76,0.00,,,0.00,WUHU21623XXSP,2013-12-14 21:00:00,
2013-12-14 15:05:00,27.5,20.9,29.23,NNE,22,9.2,9.2,76,0.00,,,0.00,WUHU21623XXSP,2013-12-14 21:05:00,
2013-12-14 15:10:00,27.7,21.1,29.23,NNW,337,2.7,9.2,76,0.00,,,0.00,WUHU21623XXSP,2013-12-14 21:10:00,
2013-12-14 15:15:00,27.5,20.9,29.23,NNE,22,0.0,6.5,76,0.00,,,0.00,WUHU21623XXSP,2013-12-14 21:15:00,
2013-12-14 15:20:00,27.3,20.7,29.23,North,0,4.7,6.0,76,0.00,,,0.00,WUHU21623XXSP,2013-12-14 21:20:00,
2013-12-14 15:25:00,27.3,20.7,29.23,NNW,337,4.3,9.2,76,0.00,,,0.00,WUHU21623XXSP,2013-12-14 21:25:00,
2013-12-14 15:31:00,27.1,20.5,29.23,NNW,337,4.3,9.2,76,0.00,,,0.00,WUHU21623XXSP,2013-12-14 21:31:00,
2013-12-14 15:35:00,27.1,20.5,29.24,NNW,337,4.3,4.3,76,0.00,,,0.00,WUHU21623XXSP,2013-12-14 21:35:00,
2013-12-14 15:41:00,27.0,20.3,29.24,ESE,112,0.0,6.9,76,0.00,,,0.00,WUHU21623XXSP,2013-12-14 21:41:00,
2013-12-14 15:46:00,27.0,20.3,29.24,NNE,22,0.7,6.9,76,0.00,,,0.00,WUHU21623XXSP,2013-12-14 21:46:00,
2013-12-14 15:51:00,26.8,20.2,29.24,NNE,22,0.7,0.7,76,0.00,,,0.00,WUHU21623XXSP,2013-12-14 21:51:00,
2013-12-14 15:56:00,26.8,20.2,29.25,NNW,337,0.0,6.9,76,0.00,,,0.00,WUHU21623XXSP,2013-12-14 21:56:00,
2013-12-14 16:00:00,26.8,20.2,29.25,NNW,337,7.2,7.2,76,0.00,,,0.00,WUHU21623XXSP,2013-12-14 22:00:00,
2013-12-14 16:06:00,26.8,20.0,29.25,NNW,337,7.2,7.2,76,0.00,,,0.00,WUHU21623XXSP,2013-12-14 22:06:00,
2013-12-14 16:11:00,26.4,19.8,29.25,East,90,1.3,7.2,76,0.00,,,0.00,WUHU21623XXSP,2013-12-14 22:11:00,
2013-12-14 16:16:00,26.4,19.8,29.25,North,0,3.1,7.4,76,0.00,,,0.00,WUHU21623XXSP,2013-12-14 22:16:00,
2013-12-14 16:21:00,26.2,19.6,29.25,NNW,337,0.0,7.4,76,0.00,,,0.00,WUHU21623XXSP,2013-12-14 22:21:00,
2013-12-14 16:26:00,26.2,19.6,29.25,NNW,337,3.4,3.4,76,0.00,,,0.00,WUHU21623XXSP,2013-12-14 22:26:00,
2013-12-14 16:31:00,26.2,19.6,29.25,NNE,22,0.0,3.4,76,0.00,,,0.00,WUHU21623XXSP,2013-12-14 22:31:00,
2013-12-14 16:36:00,26.2,19.9,29.25,NW,315,1.6,3.4,77,0.00,,,0.00,WUHU21623XXSP,2013-12-14 22:36:00,
2013-12-14 16:41:00,26.2,19.9,29.25,North,0,2.5,2.5,77,0.00,,,0.00,WUHU21623XXSP,2013-12-14 22:41:00,
2013-12-14 16:46:00,26.1,19.8,29.25,North,0,4.7,4.7,77,0.00,,,0.00,WUHU21623XXSP,2013-12-14 22:46:00,
2013-12-14 16:51:00,25.9,19.6,29.25,North,0,0.0,4.7,77,0.00,,,0.00,WUHU21623XXSP,2013-12-14 22:51:00,
2013-12-14 16:56:00,25.9,19.6,29.25,North,0,6.5,6.5,77,0.00,,,0.00,WUHU21623XXSP,2013-12-14 22:56:00,
2013-12-14 17:01:00,25.9,19.6,29.25,North,0,6.5,6.5,77,0.00,,,0.00,WUHU21623XXSP,2013-12-14 23:01:00,
2013-12-14 17:06:00,25.5,19.4,29.26,NNW,337,2.2,6.7,77,0.00,,,0.00,WUHU21623XXSP,2013-12-14 23:06:00,
2013-12-14 17:11:00,25.5,19.3,29.26,NW,315,4.0,6.7,77,0.00,,,0.00,WUHU21623XXSP,2013-12-14 23:11:00,
2013-12-14 17:16:00,25.5,19.3,29.26,NW,315,4.3,4.3,77,0.00,,,0.00,WUHU21623XXSP,2013-12-14 23:16:00,
2013-12-14 17:21:00,25.5,19.3,29.26,NW,315,4.3,4.3,77,0.00,,,0.00,WUHU21623XXSP,2013-12-14 23:21:00,
2013-12-14 17:26:00,25.5,19.3,29.26,NNE,22,0.0,4.3,77,0.00,,,0.00,WUHU21623XXSP,2013-12-14 23:26:00,
2013-12-14 17:31:00,25.7,19.4,29.26,NNE,22,0.4,4.3,77,0.00,,,0.00,WUHU21623XXSP,2013-12-14 23:31:00,
2013-12-14 17:36:00,25.9,19.4,29.26,North,0,0.0,0.4,77,0.00,,,0.00,WUHU21623XXSP,2013-12-14 23:36:00,
2013-12-14 17:41:00,25.9,19.6,29.26,West,270,0.0,0.0,77,0.00,,,0.00,WUHU21623XXSP,2013-12-14 23:41:00,
2013-12-14 17:46:00,26.1,19.6,29.26,WNW,292,0.0,0.0,77,0.00,,,0.00,WUHU21623XXSP,2013-12-14 23:46:00,
2013-12-14 17:51:00,25.9,19.8,29.27,NNW,337,6.0,6.0,77,0.00,,,0.00,WUHU21623XXSP,2013-12-14 23:51:00,
2013-12-14 17:56:00,25.9,19.6,29.27,NNW,337,6.0,6.0,76,0.00,,,0.00,WUHU21623XXSP,2013-12-14 23:56:00,
2013-12-14 18:01:00,25.7,19.1,29.27,NNW,337,0.0,6.0,76,0.00,,,0.00,WUHU21623XXSP,2013-12-15 00:01:00,
2013-12-14 18:06:00,25.5,18.9,29.27,North,0,0.0,6.0,76,0.00,,,0.00,WUHU21623XXSP,2013-12-15 00:06:00,
2013-12-14 18:11:00,25.5,18.9,29.27,North,0,0.0,4.9,76,0.00,,,0.00,WUHU21623XXSP,2013-12-15 00:11:00,
2013-12-14 18:16:00,25.5,18.9,29.27,NNE,22,0.0,0.0,76,0.00,,,0.00,WUHU21623XXSP,2013-12-15 00:16:00,
2013-12-14 18:21:00,25.5,19.3,29.28,NNE,22,0.0,0.0,77,0.00,,,0.00,WUHU21623XXSP,2013-12-15 00:21:00,
2013-12-14 18:26:00,25.5,19.3,29.28,NNW,337,0.0,0.0,77,0.00,,,0.00,WUHU21623XXSP,2013-12-15 00:26:00,
2013-12-14 18:31:00,25.5,19.3,29.28,NW,315,0.0,0.0,77,0.00,,,0.00,WUHU21623XXSP,2013-12-15 00:31:00,
2013-12-14 18:36:00,25.3,18.8,29.28,West,270,3.4,4.7,76,0.00,,,0.00,WUHU21623XXSP,2013-12-15 00:36:00,
2013-12-14 18:41:00,25.2,18.6,29.29,NE,45,0.0,7.2,76,0.00,,,0.00,WUHU21623XXSP,2013-12-15 00:41:00,
2013-12-14 18:46:00,25.2,18.6,29.29,WNW,292,0.0,7.2,76,0.00,,,0.00,WUHU21623XXSP,2013-12-15 00:46:00,
2013-12-14 18:51:00,25.2,18.9,29.29,NW,315,0.0,2.7,77,0.00,,,0.00,WUHU21623XXSP,2013-12-15 00:51:00,
2013-12-14 18:56:00,25.2,18.6,29.29,WNW,292,0.0,0.0,76,0.00,,,0.00,WUHU21623XXSP,2013-12-15 00:56:00,
2013-12-14 19:01:00,25.0,18.6,29.29,WNW,292,7.4,7.4,76,0.00,,,0.00,WUHU21623XXSP,2013-12-15 01:01:00,
2013-12-14 19:06:00,24.6,18.1,29.29,NW,315,4.9,7.4,76,0.00,,,0.00,WUHU21623XXSP,2013-12-15 01:06:00,
2013-12-14 19:11:00,24.4,17.9,29.29,West,270,0.9,4.9,76,0.00,,,0.00,WUHU21623XXSP,2013-12-15 01:11:00,
2013-12-14 19:16:00,24.4,17.9,29.30,NW,315,2.7,4.0,76,0.00,,,0.00,WUHU21623XXSP,2013-12-15 01:16:00,
2013-12-14 19:21:00,24.1,17.6,29.30,WNW,292,4.5,5.4,76,0.00,,,0.00,WUHU21623XXSP,2013-12-15 01:21:00,
2013-12-14 19:26:00,23.9,17.4,29.30,West,270,0.0,5.4,76,0.00,,,0.00,WUHU21623XXSP,2013-12-15 01:26:00,
2013-12-14 19:31:00,23.7,17.2,29.30,WNW,292,0.0,2.9,76,0.00,,,0.00,WUHU21623XXSP,2013-12-15 01:31:00,
2013-12-14 19:36:00,23.7,17.2,29.30,West,270,0.0,2.9,76,0.00,,,0.00,WUHU21623XXSP,2013-12-15 01:36:00,
2013-12-14 19:41:00,23.7,17.2,29.30,WNW,292,0.0,0.4,76,0.00,,,0.00,WUHU21623XXSP,2013-12-15 01:41:00,
2013-12-14 19:46:00,23.7,17.2,29.30,West,270,0.0,0.4,76,0.00,,,0.00,WUHU21623XXSP,2013-12-15 01:46:00,
2013-12-14 19:51:00,23.5,17.1,29.30,NW,315,0.0,4.0,76,0.00,,,0.00,WUHU21623XXSP,2013-12-15 01:51:00,
2013-12-14 19:56:00,23.5,17.1,29.30,NW,315,0.0,4.0,76,0.00,,,0.00,WUHU21623XXSP,2013-12-15 01:56:00,
2013-12-14 20:01:00,23.5,17.1,29.30,WNW,292,0.9,0.9,76,0.00,,,0.00,WUHU21623XXSP,2013-12-15 02:01:00,
2013-12-14 20:06:00,23.4,16.9,29.30,NW,315,0.0,1.3,76,0.00,,,0.00,WUHU21623XXSP,2013-12-15 02:06:00,
2013-12-14 20:11:00,23.4,16.9,29.29,NNW,337,3.8,3.8,76,0.00,,,0.00,WUHU21623XXSP,2013-12-15 02:11:00,
2013-12-14 20:16:00,23.2,16.7,29.29,WNW,292,2.7,3.8,76,0.00,,,0.00,WUHU21623XXSP,2013-12-15 02:16:00,
2013-12-14 20:21:00,22.8,16.4,29.30,NW,315,0.0,3.6,76,0.00,,,0.00,WUHU21623XXSP,2013-12-15 02:21:00,
2013-12-14 20:26:00,22.8,16.4,29.30,West,270,0.0,3.6,76,0.00,,,0.00,WUHU21623XXSP,2013-12-15 02:26:00,
2013-12-14 20:31:00,22.8,16.4,29.30,WNW,292,2.2,2.2,76,0.00,,,0.00,WUHU21623XXSP,2013-12-15 02:31:00,
2013-12-14 20:36:00,22.3,15.8,29.30,West,270,0.0,3.8,76,0.00,,,0.00,WUHU21623XXSP,2013-12-15 02:36:00,
2013-12-14 20:41:00,22.1,15.7,29.29,NW,315,0.0,3.8,76,0.00,,,0.00,WUHU21623XXSP,2013-12-15 02:41:00,
2013-12-14 20:46:00,21.9,15.5,29.29,NW,315,4.7,4.7,76,0.00,,,0.00,WUHU21623XXSP,2013-12-15 02:46:00,
2013-12-14 20:51:00,21.6,14.8,29.30,NW,315,3.8,6.9,75,0.00,,,0.00,WUHU21623XXSP,2013-12-15 02:51:00,
2013-12-14 20:56:00,21.4,14.6,29.30,WNW,292,6.5,6.9,75,0.00,,,0.00,WUHU21623XXSP,2013-12-15 02:56:00,
2013-12-14 21:01:00,21.2,14.8,29.29,WNW,292,0.0,6.5,76,0.00,,,0.00,WUHU21623XXSP,2013-12-15 03:01:00,
2013-12-14 21:06:00,21.0,14.6,29.29,West,270,0.0,2.9,76,0.00,,,0.00,WUHU21623XXSP,2013-12-15 03:06:00,
2013-12-14 21:11:00,20.8,14.4,29.30,West,270,0.0,2.9,76,0.00,,,0.00,WUHU21623XXSP,2013-12-15 03:11:00,
2013-12-14 21:16:00,20.5,14.0,29.30,NW,315,0.0,5.8,76,0.00,,,0.00,WUHU21623XXSP,2013-12-15 03:16:00,
2013-12-14 21:21:00,20.1,13.7,29.30,NW,315,2.9,5.8,76,0.00,,,0.00,WUHU21623XXSP,2013-12-15 03:21:00,
2013-12-14 21:26:00,19.9,13.2,29.30,West,270,4.9,4.9,75,0.00,,,0.00,WUHU21623XXSP,2013-12-15 03:26:00,
2013-12-14 21:31:00,19.6,12.8,29.31,NW,315,5.6,5.6,75,0.00,,,0.00,WUHU21623XXSP,2013-12-15 03:31:00,
2013-12-14 21:36:00,19.2,12.5,29.30,WNW,292,0.0,5.6,75,0.00,,,0.00,WUHU21623XXSP,2013-12-15 03:36:00,
2013-12-14 21:41:00,19.2,12.5,29.30,WNW,292,6.0,6.0,75,0.00,,,0.00,WUHU21623XXSP,2013-12-15 03:41:00,
2013-12-14 21:46:00,19.0,12.3,29.30,NW,315,1.8,6.0,75,0.00,,,0.00,WUHU21623XXSP,2013-12-15 03:46:00,
2013-12-14 21:51:00,18.7,12.0,29.30,West,270,0.0,1.8,75,0.00,,,0.00,WUHU21623XXSP,2013-12-15 03:51:00,
2013-12-14 21:56:00,18.5,11.8,29.30,NW,315,0.0,2.7,75,0.00,,,0.00,WUHU21623XXSP,2013-12-15 03:56:00,
2013-12-14 22:01:00,18.3,11.6,29.30,WNW,292,2.5,2.7,75,0.00,,,0.00,WUHU21623XXSP,2013-12-15 04:01:00,
2013-12-14 22:06:00,18.3,11.9,29.30,West,270,4.3,5.1,76,0.00,,,0.00,WUHU21623XXSP,2013-12-15 04:06:00,
2013-12-14 22:11:00,18.1,11.7,29.30,WNW,292,3.6,5.1,76,0.00,,,0.00,WUHU21623XXSP,2013-12-15 04:11:00,
2013-12-14 22:16:00,18.1,11.7,29.30,West,270,2.0,4.3,76,0.00,,,0.00,WUHU21623XXSP,2013-12-15 04:16:00,
2013-12-14 22:21:00,18.0,11.6,29.30,WNW,292,4.9,4.9,76,0.00,,,0.00,WUHU21623XXSP,2013-12-15 04:21:00,
2013-12-14 22:26:00,18.0,11.6,29.30,West,270,2.5,4.9,76,0.00,,,0.00,WUHU21623XXSP,2013-12-15 04:26:00,
2013-12-14 22:31:00,17.8,11.4,29.30,WNW,292,0.0,2.5,76,0.00,,,0.00,WUHU21623XXSP,2013-12-15 04:31:00,
2013-12-14 22:36:00,17.8,11.4,29.30,West,270,4.0,4.0,76,0.00,,,0.00,WUHU21623XXSP,2013-12-15 04:36:00,
2013-12-14 22:41:00,17.6,11.2,29.30,WNW,292,6.0,6.0,76,0.00,,,0.00,WUHU21623XXSP,2013-12-15 04:41:00,
2013-12-14 22:46:00,17.4,11.0,29.30,West,270,0.0,6.0,76,0.00,,,0.00,WUHU21623XXSP,2013-12-15 04:46:00,
2013-12-14 22:51:00,17.2,10.9,29.30,WNW,292,1.8,1.8,76,0.00,,,0.00,WUHU21623XXSP,2013-12-15 04:51:00,
2013-12-14 22:56:00,17.2,10.9,29.30,WNW,292,3.4,3.4,76,0.00,,,0.00,WUHU21623XXSP,2013-12-15 04:56:00,
2013-12-14 23:01:00,16.9,10.5,29.30,WNW,292,0.0,3.4,76,0.00,,,0.00,WUHU21623XXSP,2013-12-15 05:01:00,
2013-12-14 23:06:00,16.5,10.2,29.31,NW,315,8.7,8.7,76,0.00,,,0.00,WUHU21623XXSP,2013-12-15 05:06:00,
2013-12-14 23:11:00,16.3,10.0,29.30,WNW,292,3.6,8.7,76,0.00,,,0.00,WUHU21623XXSP,2013-12-15 05:11:00,
2013-12-14 23:56:00,15.6,9.4,29.29,NNW,338,3.4,3.4,76,0.00,,,0.00,WUHU21623XXSP,2013-12-15 05:56:00,